Flag for Germany Weather past 2 weeks in Hanau, Hesse, Germany

Now
36 °F

Passing clouds.


Feels Like: 28 °F
Forecast: 30 / 38 °F
Wind: 10 mph from Southwest

Location: Frankfurt-M-Flughafen Airport

Current Time: Feb 1, 2015 at 12:46:41 PM

Latest Report: Feb 1, 2015 at 12:20 PM


Visibility: N/A

Pressure: 29.27 "Hg

Humidity: 81%

Dew point: 30 °F

Location of HanauLocation

Historic Weather in Hanau — Graph

°F

Hanau temperature yesterday

Maximum temperature yesterday: 39 °F (at 12:50 PM)
Minimum temperature yesterday: 32 °F (at 12:20 AM)
Average temperature yesterday: 35 °F

Past Weeks' High & Low Weather Summary

 TemperatureHumidityPressure
High43 °F (Jan 17, 12:50 PM)100% (Jan 17, 6:50 PM)30.42 "Hg (Jan 17, 6:50 PM)
Low25 °F (Jan 24, 1:50 AM)65% (Jan 30, 2:20 PM)28.71 "Hg (Jan 30, 1:20 AM)
Average34 °F89%29.83 "Hg
* Reported Jan 17 11:20 AM — Feb 1 11:50 AM, Hanau, Weather by CustomWeather, © 2014

Note: Actual official high and low records may vary slightly from our data, if they occured in-between our weather recording intervals... More about our weather records

Advertising

Hanau weather history for previous 24 hours

 ConditionsComfort  
Time TempWeatherWind HumidityBarometerVisibility
11:50 AM
Feb 1
36 °FPassing clouds.7 mph87%29.27 "HgN/A
11:20 AM34 °FScattered clouds.5 mph93%29.27 "HgN/A
10:50 AM34 °FPartly sunny.6 mph93%29.27 "HgN/A
10:20 AM34 °FPartly sunny.3 mph93%29.24 "Hg6 mi
9:50 AM32 °FPartly sunny.7 mph100%29.24 "Hg6 mi
9:20 AM32 °FPartly sunny.2 mph100%29.21 "Hg6 mi
8:50 AM32 °FPartly sunny.3 mph100%29.21 "Hg5 mi
8:20 AM32 °FBroken clouds.6 mph100%29.21 "HgN/A
7:50 AM32 °FPartly cloudy.3 mph100%29.21 "Hg4 mi
7:20 AM32 °FPartly cloudy.2 mph100%29.18 "Hg4 mi
6:50 AM32 °FPartly cloudy.3 mph100%29.18 "Hg4 mi
6:20 AM32 °FPartly cloudy.3 mph100%29.15 "Hg3 mi
5:50 AM32 °FScattered showers. Partly cloudy.3 mph100%29.15 "Hg5 mi
5:20 AM32 °FLight snow. Partly cloudy.3 mph100%29.15 "Hg3 mi
4:50 AM32 °FLight snow. Ice fog.5 mph100%29.12 "Hg3 mi
4:20 AM32 °FLight snow. Ice fog.3 mph100%29.12 "Hg2 mi
3:50 AM32 °FLight snow. Ice fog.3 mph100%29.12 "Hg2 mi
3:20 AM32 °FLight snow. Ice fog.3 mph100%29.12 "Hg2 mi
2:50 AM32 °FLight snow. Ice fog.3 mph100%29.12 "Hg1 mi
2:20 AM32 °FSnow. Mostly cloudy.No wind100%29.12 "Hg1 mi
1:50 AM32 °FSnow. Low clouds.No wind100%29.12 "Hg1 mi
1:20 AM32 °FHeavy snow. Low clouds.2 mph100%29.15 "Hg1 mi
12:50 AM32 °FLight snow. Partly cloudy.5 mph100%29.15 "Hg3 mi
12:20 AM32 °FLight snow. Passing clouds.6 mph100%29.15 "Hg3 mi
11:50 PM
Jan 31
32 °FLight snow. Passing clouds.3 mph100%29.15 "HgN/A
11:20 PM32 °FPartly cloudy.6 mph100%29.15 "HgN/A
10:50 PM32 °FPassing clouds.6 mph100%29.15 "Hg5 mi
10:20 PM32 °FPassing clouds.5 mph100%29.15 "Hg4 mi
9:50 PM34 °FPassing clouds.3 mph100%29.15 "Hg4 mi
9:20 PM34 °FPassing clouds.3 mph100%29.15 "Hg4 mi
8:50 PM34 °FPartly cloudy.No wind93%29.12 "Hg4 mi
8:20 PM34 °FPassing clouds.2 mph93%29.12 "Hg4 mi
7:50 PM34 °FLow clouds.2 mph93%29.12 "Hg4 mi
7:20 PM34 °FPassing clouds.No wind93%29.12 "Hg4 mi
6:50 PM32 °FLight snow. Mostly cloudy.2 mph100%29.12 "Hg3 mi
6:20 PM34 °FLight rain. Partly cloudy.3 mph93%29.09 "Hg3 mi
5:50 PM34 °FLight rain. Passing clouds.5 mph93%29.09 "Hg4 mi
5:20 PM36 °FSprinkles. Partly cloudy.3 mph93%29.09 "Hg3 mi
4:20 PM37 °FSprinkles. Broken clouds.8 mph81%29.06 "HgN/A
3:50 PM37 °FScattered showers. Broken clouds.8 mph81%29.06 "HgN/A
3:20 PM39 °FScattered showers. Broken clouds.8 mph75%29.06 "HgN/A
2:50 PM39 °FPartly sunny.10 mph70%29.06 "HgN/A
2:20 PM39 °FPartly sunny.13 mph65%29.03 "HgN/A
1:50 PM39 °FBroken clouds.13 mph65%29.06 "HgN/A
1:20 PM39 °FBroken clouds.10 mph65%29.06 "HgN/A
12:50 PM39 °FBroken clouds.13 mph65%29.06 "HgN/A
12:20 PM37 °FScattered clouds.14 mph70%29.03 "HgN/A
Weather by CustomWeather, © 2014

See weather overviewHow to use our weather pages